| time (UTC) | temp F | wind direction | speed MPH | gust MPH | rain 1hr in | rain 24hr in | rain mn in | humidity % | barometer mb |
| 20260508192023 | 74 | 209 | 6.0 | 9.0 | 0.00 | 0.01 | 0.01 | 85 | 1009.3 |
| 20260508191525 | 74 | 167 | 6.0 | 10.0 | 0.00 | 0.01 | 0.01 | 85 | 1009.3 |
| 20260508191022 | 74 | 200 | 6.0 | 10.0 | 0.00 | 0.01 | 0.01 | 85 | 1009.4 |
| 20260508190523 | 74 | 227 | 4.0 | 8.0 | 0.00 | 0.01 | 0.01 | 85 | 1009.4 |
| 20260508190026 | 75 | 189 | 3.0 | 10.0 | 0.00 | 0.01 | 0.01 | 84 | 1009.3 |
| 20260508185521 | 75 | 213 | 4.0 | 11.0 | 0.00 | 0.01 | 0.01 | 83 | 1009.3 |
| 20260508185021 | 75 | 191 | 6.0 | 12.0 | 0.00 | 0.01 | 0.01 | 85 | 1009.4 |
| 20260508184523 | 75 | 226 | 7.0 | 11.0 | 0.00 | 0.01 | 0.01 | 85 | 1009.4 |
| 20260508184018 | 75 | 213 | 7.0 | 12.0 | 0.00 | 0.01 | 0.01 | 86 | 1009.4 |
| 20260508183520 | 74 | 209 | 7.0 | 11.0 | 0.00 | 0.01 | 0.01 | 86 | 1009.5 |
| 20260508183016 | 73 | 191 | 7.0 | 16.0 | 0.00 | 0.01 | 0.01 | 89 | 1009.6 |
| 20260508182514 | 72 | 215 | 9.0 | 16.0 | 0.00 | 0.01 | 0.01 | 89 | 1009.7 |
| 20260508182012 | 72 | 200 | 7.0 | 10.0 | 0.00 | 0.01 | 0.01 | 90 | 1009.7 |
| 20260508181511 | 71 | 193 | 3.0 | 6.0 | 0.00 | 0.01 | 0.01 | 89 | 1009.8 |
| 20260508181010 | 71 | 208 | 4.0 | 6.0 | 0.00 | 0.01 | 0.01 | 90 | 1010.0 |
| 20260508180511 | 71 | 184 | 3.0 | 7.0 | 0.00 | 0.01 | 0.01 | 91 | 1010.1 |
| 20260508180016 | 71 | 215 | 3.0 | 8.0 | 0.00 | 0.01 | 0.01 | 90 | 1010.3 |
| 20260508175507 | 71 | 220 | 5.0 | 8.0 | 0.00 | 0.01 | 0.01 | 91 | 1010.5 |
| 20260508175007 | 70 | 237 | 3.0 | 8.0 | 0.00 | 0.01 | 0.01 | 92 | 1010.5 |
| 20260508174505 | 70 | 213 | 3.0 | 8.0 | 0.00 | 0.01 | 0.01 | 92 | 1010.6 |
| 20260508174004 | 69 | 219 | 4.0 | 8.0 | 0.00 | 0.01 | 0.01 | 92 | 1010.7 |
| 20260508173504 | 69 | 197 | 3.0 | 10.0 | 0.00 | 0.01 | 0.01 | 92 | 1010.8 |
| 20260508173002 | 69 | 231 | 5.0 | 10.0 | 0.00 | 0.01 | 0.01 | 91 | 1010.9 |
| 20260508172502 | 70 | 208 | 7.0 | 11.0 | 0.00 | 0.01 | 0.01 | 91 | 1010.9 |
| 20260508172002 | 70 | 215 | 5.0 | 11.0 | 0.00 | 0.01 | 0.01 | 92 | 1010.9 |
| 20260508171501 | 70 | 189 | 5.0 | 11.0 | 0.00 | 0.01 | 0.01 | 93 | 1011.0 |
| 20260508171059 | 69 | 169 | 6.0 | 11.0 | 0.00 | 0.01 | 0.01 | 94 | 1011.0 |
| 20260508170558 | 69 | 192 | 6.0 | 11.0 | 0.00 | 0.01 | 0.01 | 95 | 1011.0 |
| 20260508170058 | 69 | 195 | 3.0 | 10.0 | 0.00 | 0.01 | 0.01 | 95 | 1011.1 |
| 20260508165600 | 69 | 186 | 6.0 | 10.0 | 0.00 | 0.01 | 0.01 | 97 | 1011.2 |
| 20260508165057 | 68 | 160 | 4.0 | 9.0 | 0.00 | 0.01 | 0.01 | 99 | 1011.2 |
| 20260508164555 | 68 | 156 | 4.0 | 7.0 | 0.00 | 0.01 | 0.01 | 100 | 1011.2 |
| 20260508164053 | 67 | 179 | 1.0 | 4.0 | 0.00 | 0.01 | 0.01 | 100 | 1011.3 |
| 20260508163553 | 66 | 118 | 1.0 | 4.0 | 0.00 | 0.01 | 0.01 | 100 | 1011.5 |
| 20260508163051 | 66 | 88 | 2.0 | 6.0 | 0.00 | 0.01 | 0.01 | 100 | 1011.5 |
| 20260508162549 | 65 | 99 | 3.0 | 4.0 | 0.00 | 0.01 | 0.01 | 100 | 1011.7 |
| 20260508162048 | 64 | 134 | 1.0 | 4.0 | 0.00 | 0.01 | 0.01 | 100 | 1011.9 |
| 20260508161546 | 64 | 63 | 1.0 | 4.0 | 0.00 | 0.01 | 0.01 | 100 | 1012.0 |
| 20260508161047 | 64 | 69 | 0.0 | 4.0 | 0.00 | 0.01 | 0.01 | 100 | 1012.1 |
| 20260508160546 | 63 | 69 | 1.0 | 4.0 | 0.00 | 0.01 | 0.01 | 100 | 1012.1 |
| 20260508155542 | 63 | 79 | 1.0 | 4.0 | 0.00 | 0.01 | 0.01 | 100 | 1012.2 |
| 20260508155043 | 63 | 85 | 1.0 | 3.0 | 0.00 | 0.01 | 0.01 | 100 | 1012.2 |
| 20260508154542 | 63 | 98 | 1.0 | 3.0 | 0.00 | 0.01 | 0.01 | 100 | 1012.3 |
| 20260508154040 | 62 | 46 | 1.0 | 4.0 | 0.00 | 0.01 | 0.01 | 100 | 1012.2 |
| 20260508153540 | 62 | 42 | 2.0 | 3.0 | 0.00 | 0.01 | 0.01 | 100 | 1012.3 |
| 20260508153045 | 62 | 28 | 1.0 | 3.0 | 0.00 | 0.01 | 0.01 | 100 | 1012.5 |
| 20260508152538 | 61 | 63 | 1.0 | 4.0 | 0.00 | 0.01 | 0.01 | 100 | 1012.7 |
| 20260508152038 | 61 | 63 | 2.0 | 4.0 | 0.00 | 0.01 | 0.01 | 100 | 1012.8 |
| 20260508151538 | 61 | 64 | 2.0 | 4.0 | 0.00 | 0.01 | 0.01 | 100 | 1012.5 |
| 20260508151035 | 60 | 63 | 0.0 | 2.0 | 0.00 | 0.01 | 0.01 | 99 | 1012.6 |
| 20260508150535 | 60 | 63 | 0.0 | 2.0 | 0.00 | 0.01 | 0.01 | 99 | 1012.6 |
| 20260508150036 | 60 | 63 | 1.0 | 3.0 | 0.00 | 0.01 | 0.01 | 99 | 1012.6 |
| 20260508145534 | 60 | 63 | 1.0 | 3.0 | 0.00 | 0.01 | 0.01 | 99 | 1012.8 |
| 20260508145034 | 60 | 73 | 2.0 | 5.0 | 0.00 | 0.01 | 0.01 | 99 | 1012.7 |
| 20260508144534 | 60 | 83 | 3.0 | 5.0 | 0.00 | 0.01 | 0.01 | 99 | 1012.8 |
| 20260508144032 | 60 | 70 | 2.0 | 5.0 | 0.00 | 0.01 | 0.01 | 99 | 1012.7 |
| 20260508143532 | 59 | 76 | 3.0 | 4.0 | 0.00 | 0.01 | 0.01 | 99 | 1012.8 |
| 20260508143041 | 59 | 73 | 2.0 | 4.0 | 0.00 | 0.01 | 0.01 | 99 | 1012.9 |
| 20260508142531 | 59 | 65 | 3.0 | 3.0 | 0.00 | 0.01 | 0.01 | 99 | 1013.0 |
| 20260508142031 | 59 | 87 | 1.0 | 3.0 | 0.00 | 0.01 | 0.01 | 99 | 1013.1 |
| 20260508141542 | 59 | 75 | 1.0 | 2.0 | 0.01 | 0.01 | 0.01 | 99 | 1013.2 |
| 20260508141031 | 59 | 63 | 0.0 | 2.0 | 0.01 | 0.01 | 0.01 | 99 | 1013.2 |
| 20260508140531 | 59 | 57 | 0.0 | 2.0 | 0.01 | 0.01 | 0.01 | 99 | 1013.2 |
| 20260508140030 | 59 | 57 | 1.0 | 4.0 | 0.01 | 0.01 | 0.01 | 99 | 1013.1 |
| 20260508135533 | 59 | 57 | 1.0 | 4.0 | 0.01 | 0.01 | 0.01 | 99 | 1013.0 |
| 20260508135030 | 58 | 79 | 2.0 | 3.0 | 0.01 | 0.01 | 0.01 | 99 | 1013.1 |
| 20260508134534 | 58 | 78 | 1.0 | 3.0 | 0.01 | 0.01 | 0.01 | 99 | 1013.2 |
| 20260508134028 | 58 | 78 | 1.0 | 6.0 | 0.01 | 0.01 | 0.01 | 99 | 1013.2 |
| 20260508133529 | 58 | 78 | 3.0 | 6.0 | 0.01 | 0.01 | 0.01 | 99 | 1013.1 |
| 20260508133028 | 58 | 82 | 4.0 | 7.0 | 0.01 | 0.01 | 0.01 | 99 | 1012.9 |
| 20260508132527 | 58 | 69 | 3.0 | 7.0 | 0.01 | 0.01 | 0.01 | 99 | 1012.8 |
| 20260508132029 | 58 | 72 | 6.0 | 7.0 | 0.01 | 0.01 | 0.01 | 99 | 1012.6 |
| 20260508131527 | 58 | 49 | 5.0 | 9.0 | 0.00 | 0.00 | 0.00 | 98 | 1012.6 |
| 20260508131058 | 58 | 49 | 6.0 | 9.0 | 0.00 | 0.00 | 0.00 | 98 | 1012.5 |
| 20260508130559 | 58 | 41 | 6.0 | 9.0 | 0.00 | 0.00 | 0.00 | 99 | 1012.5 |
| 20260508125557 | 58 | 56 | 5.0 | 7.0 | 0.00 | 0.00 | 0.00 | 98 | 1012.4 |
| 20260508125057 | 58 | 65 | 4.0 | 7.0 | 0.00 | 0.00 | 0.00 | 98 | 1012.4 |
| 20260508124556 | 58 | 76 | 3.0 | 7.0 | 0.00 | 0.00 | 0.00 | 98 | 1012.6 |
| 20260508124056 | 58 | 61 | 5.0 | 8.0 | 0.00 | 0.00 | 0.00 | 98 | 1012.4 |
| 20260508123556 | 58 | 70 | 4.0 | 6.0 | 0.00 | 0.00 | 0.00 | 98 | 1012.4 |
| 20260508123056 | 58 | 61 | 4.0 | 6.0 | 0.00 | 0.00 | 0.00 | 98 | 1012.4 |
| 20260508122555 | 58 | 61 | 4.0 | 7.0 | 0.00 | 0.00 | 0.00 | 98 | 1012.3 |
| 20260508122055 | 58 | 72 | 4.0 | 7.0 | 0.00 | 0.00 | 0.00 | 98 | 1012.3 |
| 20260508121606 | 58 | 68 | 4.0 | 6.0 | 0.00 | 0.00 | 0.00 | 98 | 1012.4 |
| 20260508121054 | 58 | 52 | 4.0 | 6.0 | 0.00 | 0.00 | 0.00 | 98 | 1012.3 |
| 20260508120553 | 58 | 74 | 3.0 | 6.0 | 0.00 | 0.00 | 0.00 | 98 | 1012.4 |
| 20260508120053 | 58 | 60 | 4.0 | 6.0 | 0.00 | 0.00 | 0.00 | 98 | 1012.2 |
| 20260508115552 | 58 | 79 | 3.0 | 6.0 | 0.00 | 0.00 | 0.00 | 98 | 1012.4 |
| 20260508115052 | 58 | 66 | 4.0 | 6.0 | 0.00 | 0.00 | 0.00 | 97 | 1012.4 |
| 20260508114551 | 58 | 48 | 3.0 | 7.0 | 0.00 | 0.00 | 0.00 | 97 | 1012.6 |
| 20260508114051 | 58 | 59 | 6.0 | 7.0 | 0.00 | 0.00 | 0.00 | 97 | 1012.5 |
| 20260508113550 | 58 | 73 | 4.0 | 6.0 | 0.00 | 0.00 | 0.00 | 97 | 1012.9 |
| 20260508113051 | 58 | 61 | 4.0 | 5.0 | 0.00 | 0.00 | 0.00 | 97 | 1012.8 |
| 20260508112549 | 58 | 71 | 4.0 | 6.0 | 0.00 | 0.00 | 0.00 | 96 | 1013.0 |
| 20260508112053 | 58 | 64 | 3.0 | 6.0 | 0.00 | 0.00 | 0.00 | 96 | 1013.1 |
| 20260508111548 | 58 | 61 | 4.0 | 5.0 | 0.00 | 0.00 | 0.00 | 96 | 1013.1 |
| 20260508111050 | 58 | 82 | 3.0 | 5.0 | 0.00 | 0.00 | 0.00 | 96 | 1013.1 |
| 20260508110546 | 58 | 63 | 3.0 | 5.0 | 0.00 | 0.00 | 0.00 | 96 | 1013.1 |
| 20260508110052 | 58 | 50 | 2.0 | 6.0 | 0.00 | 0.00 | 0.00 | 95 | 1013.1 |
| 20260508105548 | 58 | 55 | 3.0 | 6.0 | 0.00 | 0.00 | 0.00 | 95 | 1013.0 |
| 20260508105051 | 58 | 36 | 3.0 | 5.0 | 0.00 | 0.00 | 0.00 | 95 | 1012.9 |
| 20260508104546 | 59 | 69 | 3.0 | 6.0 | 0.00 | 0.00 | 0.00 | 94 | 1012.8 |
| 20260508104045 | 59 | 54 | 4.0 | 8.0 | 0.00 | 0.00 | 0.00 | 94 | 1012.7 |
| 20260508103545 | 59 | 61 | 4.0 | 7.0 | 0.00 | 0.00 | 0.00 | 94 | 1012.7 |
| 20260508103044 | 59 | 56 | 4.0 | 5.0 | 0.00 | 0.00 | 0.00 | 93 | 1012.7 |
| 20260508102544 | 59 | 59 | 2.0 | 6.0 | 0.00 | 0.00 | 0.00 | 93 | 1012.8 |
| 20260508102044 | 59 | 76 | 4.0 | 6.0 | 0.00 | 0.00 | 0.00 | 93 | 1012.7 |
| 20260508101544 | 59 | 78 | 3.0 | 5.0 | 0.00 | 0.00 | 0.00 | 93 | 1012.7 |
| 20260508101043 | 59 | 81 | 2.0 | 5.0 | 0.00 | 0.00 | 0.00 | 93 | 1012.7 |
| 20260508100542 | 59 | 94 | 2.0 | 5.0 | 0.00 | 0.00 | 0.00 | 93 | 1012.7 |
| 20260508100043 | 59 | 81 | 4.0 | 6.0 | 0.00 | 0.00 | 0.00 | 93 | 1012.6 |
| 20260508095544 | 59 | 97 | 3.0 | 7.0 | 0.00 | 0.00 | 0.00 | 93 | 1012.7 |
| 20260508095042 | 59 | 51 | 6.0 | 8.0 | 0.00 | 0.00 | 0.00 | 93 | 1012.4 |
| 20260508094547 | 59 | 67 | 4.0 | 6.0 | 0.00 | 0.00 | 0.00 | 92 | 1012.7 |
| 20260508094040 | 60 | 55 | 2.0 | 3.0 | 0.00 | 0.00 | 0.00 | 92 | 1012.7 |
| 20260508093540 | 60 | 78 | 0.0 | 3.0 | 0.00 | 0.00 | 0.00 | 92 | 1012.8 |
| 20260508093040 | 60 | 69 | 2.0 | 3.0 | 0.00 | 0.00 | 0.00 | 92 | 1012.8 |
| 20260508092540 | 60 | 90 | 0.0 | 2.0 | 0.00 | 0.00 | 0.00 | 92 | 1012.9 |
| 20260508092039 | 60 | 105 | 1.0 | 3.0 | 0.00 | 0.00 | 0.00 | 92 | 1013.0 |
| 20260508091540 | 60 | 146 | 1.0 | 4.0 | 0.00 | 0.00 | 0.00 | 92 | 1013.1 |
| 20260508091038 | 60 | 144 | 2.0 | 4.0 | 0.00 | 0.00 | 0.00 | 91 | 1013.2 |
| 20260508090539 | 60 | 150 | 2.0 | 5.0 | 0.00 | 0.00 | 0.00 | 91 | 1013.0 |
| 20260508090038 | 60 | 163 | 3.0 | 5.0 | 0.00 | 0.00 | 0.00 | 91 | 1013.0 |
| 20260508085538 | 60 | 161 | 2.0 | 5.0 | 0.00 | 0.00 | 0.00 | 92 | 1012.9 |
| 20260508085038 | 60 | 142 | 2.0 | 5.0 | 0.00 | 0.00 | 0.00 | 92 | 1013.0 |
| 20260508084538 | 60 | 148 | 2.0 | 4.0 | 0.00 | 0.00 | 0.00 | 92 | 1012.9 |
| 20260508084038 | 60 | 130 | 1.0 | 5.0 | 0.00 | 0.00 | 0.00 | 92 | 1012.8 |
| 20260508083538 | 60 | 154 | 2.0 | 4.0 | 0.00 | 0.00 | 0.00 | 92 | 1012.9 |
| 20260508083115 | 60 | 126 | 1.0 | 4.0 | 0.00 | 0.00 | 0.00 | 92 | 1012.9 |
| 20260508082536 | 60 | 99 | 2.0 | 5.0 | 0.00 | 0.00 | 0.00 | 92 | 1012.9 |
| 20260508082036 | 60 | 123 | 2.0 | 5.0 | 0.00 | 0.00 | 0.00 | 92 | 1013.0 |
| 20260508081538 | 60 | 157 | 2.0 | 8.0 | 0.00 | 0.00 | 0.00 | 92 | 1013.2 |
| 20260508081035 | 60 | 132 | 4.0 | 9.0 | 0.00 | 0.00 | 0.00 | 92 | 1013.1 |
| 20260508080533 | 60 | 134 | 4.0 | 8.0 | 0.00 | 0.00 | 0.00 | 91 | 1013.4 |
| 20260508080046 | 60 | 146 | 4.0 | 8.0 | 0.00 | 0.00 | 0.00 | 91 | 1013.3 |
| 20260508075533 | 60 | 119 | 4.0 | 8.0 | 0.00 | 0.00 | 0.00 | 90 | 1013.2 |
| 20260508075031 | 60 | 136 | 4.0 | 7.0 | 0.00 | 0.00 | 0.00 | 90 | 1013.4 |
| 20260508074534 | 60 | 131 | 2.0 | 5.0 | 0.00 | 0.00 | 0.00 | 89 | 1013.5 |
| 20260508074029 | 60 | 107 | 0.0 | 2.0 | 0.00 | 0.00 | 0.00 | 89 | 1013.4 |
| 20260508073529 | 60 | 107 | 1.0 | 3.0 | 0.00 | 0.00 | 0.00 | 89 | 1013.4 |
| 20260508073029 | 60 | 107 | 1.0 | 4.0 | 0.00 | 0.00 | 0.00 | 88 | 1013.5 |
| 20260508072526 | 60 | 82 | 2.0 | 4.0 | 0.00 | 0.00 | 0.00 | 88 | 1013.5 |
| 20260508072024 | 60 | 86 | 1.0 | 4.0 | 0.00 | 0.00 | 0.00 | 88 | 1013.5 |
| 20260508071530 | 60 | 78 | 2.0 | 4.0 | 0.00 | 0.00 | 0.00 | 88 | 1013.4 |
| 20260508071020 | 60 | 71 | 2.0 | 4.0 | 0.00 | 0.00 | 0.00 | 88 | 1013.4 |
| 20260508070522 | 60 | 76 | 2.0 | 4.0 | 0.00 | 0.00 | 0.00 | 88 | 1013.5 |
| 20260508070018 | 60 | 91 | 2.0 | 5.0 | 0.00 | 0.00 | 0.00 | 88 | 1013.6 |
| 20260508065515 | 60 | 74 | 3.0 | 5.0 | 0.00 | 0.00 | 0.00 | 88 | 1013.7 |
| 20260508065015 | 60 | 78 | 1.0 | 3.0 | 0.00 | 0.00 | 0.00 | 88 | 1013.8 |
| 20260508064535 | 60 | 78 | 2.0 | 4.0 | 0.00 | 0.00 | 0.00 | 88 | 1013.7 |
| 20260508064012 | 60 | 68 | 2.0 | 4.0 | 0.00 | 0.00 | 0.00 | 88 | 1013.7 |
| 20260508063511 | 60 | 67 | 2.0 | 4.0 | 0.00 | 0.00 | 0.00 | 88 | 1013.8 |
| 20260508063008 | 60 | 100 | 2.0 | 3.0 | 0.00 | 0.00 | 0.00 | 88 | 1014.0 |
| 20260508062508 | 60 | 122 | 2.0 | 4.0 | 0.00 | 0.00 | 0.00 | 88 | 1014.0 |
| 20260508062007 | 60 | 169 | 2.0 | 4.0 | 0.00 | 0.00 | 0.00 | 88 | 1014.1 |
| 20260508061505 | 60 | 227 | 1.0 | 3.0 | 0.00 | 0.00 | 0.00 | 88 | 1014.1 |
| 20260508061005 | 60 | 77 | 0.0 | 2.0 | 0.00 | 0.00 | 0.00 | 88 | 1014.0 |
| 20260508060506 | 60 | 77 | 0.0 | 2.0 | 0.00 | 0.00 | 0.00 | 88 | 1013.9 |
| 20260508060005 | 60 | 77 | 0.0 | 4.0 | 0.00 | 0.00 | 0.00 | 88 | 1013.9 |
| 20260508055507 | 59 | 77 | 1.0 | 5.0 | 0.00 | 0.00 | 0.00 | 88 | 1013.8 |
| 20260508055006 | 59 | 70 | 3.0 | 5.0 | 0.00 | 0.00 | 0.00 | 88 | 1013.7 |
| 20260508054504 | 59 | 71 | 3.0 | 5.0 | 0.00 | 0.00 | 0.00 | 88 | 1013.6 |
| 20260508054004 | 60 | 63 | 2.0 | 6.0 | 0.00 | 0.00 | 0.00 | 88 | 1013.6 |
| 20260508053504 | 60 | 57 | 3.0 | 9.0 | 0.00 | 0.00 | 0.00 | 88 | 1014.0 |
| 20260508053003 | 60 | 44 | 4.0 | 12.0 | 0.00 | 0.00 | 0.00 | 88 | 1013.8 |
| 20260508052506 | 60 | 59 | 9.0 | 12.0 | 0.00 | 0.00 | 0.00 | 88 | 1013.6 |
| 20260508052004 | 60 | 55 | 7.0 | 10.0 | 0.00 | 0.00 | 0.00 | 88 | 1013.7 |
| 20260508051603 | 60 | 65 | 6.0 | 10.0 | 0.00 | 0.00 | 0.00 | 88 | 1013.9 |
| 20260508051059 | 60 | 71 | 4.0 | 10.0 | 0.00 | 0.00 | 0.00 | 88 | 1014.0 |
| 20260508050557 | 60 | 83 | 6.0 | 9.0 | 0.00 | 0.00 | 0.00 | 88 | 1013.9 |
| 20260508050100 | 60 | 34 | 1.0 | 3.0 | 0.00 | 0.00 | 0.00 | 88 | 1014.7 |
| 20260508045555 | 60 | 10 | 1.0 | 3.0 | 0.00 | 0.00 | 0.00 | 88 | 1014.8 |
| 20260508045058 | 60 | 10 | 0.0 | 6.0 | 0.00 | 0.00 | 0.00 | 88 | 1015.2 |
| 20260508044555 | 60 | 22 | 3.0 | 8.0 | 0.00 | 0.00 | 0.00 | 88 | 1015.0 |
| 20260508044058 | 60 | 13 | 5.0 | 7.0 | 0.00 | 0.00 | 0.00 | 88 | 1014.7 |
| 20260508043554 | 60 | 12 | 4.0 | 8.0 | 0.00 | 0.00 | 0.00 | 87 | 1014.8 |
| 20260508043055 | 60 | 24 | 3.0 | 9.0 | 0.00 | 0.00 | 0.00 | 87 | 1014.5 |
| 20260508042555 | 60 | 69 | 5.0 | 9.0 | 0.00 | 0.00 | 0.00 | 87 | 1014.3 |
| 20260508042058 | 60 | 61 | 6.0 | 7.0 | 0.00 | 0.00 | 0.00 | 87 | 1014.3 |
| 20260508041558 | 60 | 49 | 4.0 | 5.0 | 0.00 | 0.00 | 0.00 | 87 | 1014.4 |
| 20260508041054 | 60 | 10 | 3.0 | 7.0 | 0.00 | 0.00 | 0.00 | 87 | 1014.7 |
| 20260508040553 | 60 | 32 | 2.0 | 8.0 | 0.00 | 0.00 | 0.00 | 86 | 1014.6 |
| 20260508040055 | 60 | 53 | 4.0 | 9.0 | 0.00 | 0.00 | 0.00 | 86 | 1014.3 |
| 20260508035553 | 60 | 46 | 5.0 | 9.0 | 0.00 | 0.00 | 0.00 | 86 | 1014.4 |
| 20260508035052 | 60 | 32 | 6.0 | 9.0 | 0.00 | 0.00 | 0.00 | 86 | 1014.7 |
| 20260508034555 | 60 | 22 | 3.0 | 6.0 | 0.00 | 0.00 | 0.00 | 85 | 1014.8 |
| 20260508034051 | 60 | 348 | 2.0 | 8.0 | 0.00 | 0.00 | 0.00 | 85 | 1014.8 |
| 20260508033555 | 60 | 14 | 6.0 | 8.0 | 0.00 | 0.00 | 0.00 | 85 | 1014.6 |
| 20260508033058 | 60 | 20 | 3.0 | 8.0 | 0.00 | 0.00 | 0.00 | 85 | 1014.7 |
| 20260508032552 | 60 | 329 | 3.0 | 8.0 | 0.00 | 0.00 | 0.00 | 85 | 1014.5 |
| 20260508032054 | 60 | 320 | 3.0 | 10.0 | 0.00 | 0.00 | 0.00 | 85 | 1014.9 |
| 20260508031551 | 60 | 77 | 1.0 | 13.0 | 0.00 | 0.00 | 0.00 | 85 | 1014.4 |
| 20260508031050 | 60 | 89 | 6.0 | 16.0 | 0.00 | 0.00 | 0.00 | 86 | 1013.2 |
| 20260508030550 | 59 | 71 | 11.0 | 20.0 | 0.00 | 0.00 | 0.00 | 86 | 1012.5 |
| 20260508030107 | 59 | 81 | 13.0 | 20.0 | 0.00 | 0.00 | 0.00 | 86 | 1011.8 |
| 20260508025549 | 59 | 73 | 15.0 | 19.0 | 0.00 | 0.00 | 0.00 | 87 | 1012.3 |
| 20260508025052 | 59 | 62 | 12.0 | 15.0 | 0.00 | 0.00 | 0.00 | 87 | 1013.1 |
| 20260508024558 | 59 | 69 | 10.0 | 13.0 | 0.00 | 0.00 | 0.00 | 88 | 1013.7 |
| 20260508024050 | 59 | 52 | 7.0 | 12.0 | 0.00 | 0.00 | 0.00 | 88 | 1013.7 |
| 20260508023549 | 59 | 82 | 8.0 | 12.0 | 0.00 | 0.00 | 0.00 | 88 | 1014.0 |
| 20260508023050 | 59 | 51 | 8.0 | 11.0 | 0.00 | 0.00 | 0.00 | 88 | 1014.2 |
| 20260508022549 | 59 | 77 | 7.0 | 11.0 | 0.00 | 0.00 | 0.00 | 88 | 1014.1 |
| 20260508022049 | 59 | 51 | 8.0 | 11.0 | 0.00 | 0.00 | 0.00 | 88 | 1014.1 |
| 20260508021549 | 59 | 49 | 9.0 | 11.0 | 0.00 | 0.00 | 0.00 | 89 | 1013.9 |
| 20260508021049 | 59 | 61 | 7.0 | 11.0 | 0.00 | 0.00 | 0.00 | 88 | 1013.9 |
| 20260508020548 | 60 | 77 | 6.0 | 10.0 | 0.00 | 0.00 | 0.00 | 89 | 1013.9 |
| 20260508020049 | 60 | 65 | 6.0 | 9.0 | 0.00 | 0.00 | 0.00 | 89 | 1014.0 |
| 20260508015548 | 60 | 32 | 4.0 | 6.0 | 0.00 | 0.00 | 0.00 | 89 | 1014.3 |
| 20260508015048 | 60 | 41 | 2.0 | 5.0 | 0.00 | 0.00 | 0.00 | 89 | 1014.3 |
| 20260508014548 | 60 | 26 | 3.0 | 5.0 | 0.00 | 0.00 | 0.00 | 89 | 1014.2 |
| 20260508014048 | 60 | 26 | 2.0 | 4.0 | 0.00 | 0.00 | 0.00 | 88 | 1014.3 |
| 20260508013547 | 60 | 34 | 1.0 | 4.0 | 0.00 | 0.00 | 0.00 | 88 | 1014.2 |
| 20260508013048 | 60 | 40 | 2.0 | 3.0 | 0.00 | 0.00 | 0.00 | 88 | 1014.0 |
| 20260508012547 | 60 | 62 | 1.0 | 3.0 | 0.00 | 0.00 | 0.00 | 88 | 1013.9 |
| 20260508012051 | 60 | 32 | 1.0 | 3.0 | 0.00 | 0.00 | 0.00 | 88 | 1013.9 |
| 20260508011559 | 60 | 44 | 2.0 | 6.0 | 0.00 | 0.00 | 0.00 | 88 | 1013.8 |
| 20260508011047 | 60 | 47 | 3.0 | 9.0 | 0.00 | 0.00 | 0.00 | 88 | 1013.7 |
| 20260508010546 | 59 | 27 | 3.0 | 10.0 | 0.00 | 0.00 | 0.00 | 88 | 1013.5 |
| 20260508010057 | 59 | 49 | 5.0 | 11.0 | 0.00 | 0.00 | 0.00 | 88 | 1013.2 |
| 20260508005546 | 59 | 76 | 7.0 | 12.0 | 0.00 | 0.00 | 0.00 | 89 | 1012.9 |
| 20260508005046 | 59 | 62 | 7.0 | 14.0 | 0.00 | 0.00 | 0.00 | 89 | 1013.0 |
| 20260508004556 | 59 | 40 | 8.0 | 15.0 | 0.00 | 0.00 | 0.00 | 89 | 1013.0 |
| 20260508004045 | 59 | 55 | 9.0 | 15.0 | 0.00 | 0.00 | 0.00 | 89 | 1012.4 |
| 20260508003547 | 59 | 15 | 10.0 | 13.0 | 0.00 | 0.00 | 0.00 | 90 | 1013.1 |
| 20260508003046 | 59 | 9 | 8.0 | 10.0 | 0.00 | 0.00 | 0.00 | 90 | 1013.3 |
| 20260508002545 | 59 | 51 | 7.0 | 10.0 | 0.00 | 0.00 | 0.00 | 90 | 1012.6 |
| 20260508002045 | 59 | 30 | 5.0 | 9.0 | 0.00 | 0.00 | 0.00 | 90 | 1012.9 |
| 20260508001546 | 59 | 355 | 3.0 | 7.0 | 0.00 | 0.00 | 0.00 | 90 | 1013.4 |
| 20260508001044 | 59 | 355 | 2.0 | 13.0 | 0.00 | 0.00 | 0.00 | 90 | 1013.0 |
| 20260508000548 | 59 | 48 | 7.0 | 13.0 | 0.00 | 0.00 | 0.00 | 90 | 1012.7 |
| 20260508000043 | 59 | 355 | 7.0 | 11.0 | 0.00 | 0.00 | 0.00 | 90 | 1012.9 |
| 20260507235543 | 59 | 33 | 7.0 | 11.0 | 0.00 | 0.00 | 0.00 | 90 | 1013.0 |
| 20260507235043 | 59 | 36 | 7.0 | 11.0 | 0.00 | 0.00 | 0.00 | 89 | 1012.7 |
| 20260507234543 | 60 | 28 | 5.0 | 12.0 | 0.00 | 0.00 | 0.00 | 89 | 1012.9 |
| 20260507234042 | 60 | 30 | 6.0 | 16.0 | 0.00 | 0.00 | 0.00 | 89 | 1012.7 |
| 20260507233542 | 60 | 9 | 7.0 | 20.0 | 0.00 | 0.00 | 0.00 | 89 | 1012.6 |
| 20260507233041 | 60 | 48 | 10.0 | 21.0 | 0.00 | 0.00 | 0.00 | 89 | 1012.0 |
| 20260507232540 | 60 | 26 | 13.0 | 23.0 | 0.00 | 0.00 | 0.00 | 88 | 1012.0 |
| 20260507232040 | 60 | 52 | 15.0 | 27.0 | 0.00 | 0.00 | 0.00 | 88 | 1011.3 |
| 20260507231546 | 60 | 53 | 17.0 | 27.0 | 0.00 | 0.00 | 0.00 | 88 | 1012.3 |
| 20260507231041 | 61 | 360 | 13.0 | 24.0 | 0.00 | 0.00 | 0.00 | 86 | 1013.0 |
| 20260507230541 | 61 | 298 | 9.0 | 24.0 | 0.00 | 0.00 | 0.00 | 84 | 1012.2 |
| 20260507230040 | 61 | 116 | 15.0 | 24.0 | 0.00 | 0.00 | 0.00 | 84 | 1011.1 |
| 20260507225639 | 61 | 112 | 9.0 | 13.0 | 0.00 | 0.00 | 0.00 | 84 | 1012.8 |
| 20260507225039 | 61 | 69 | 5.0 | 18.0 | 0.00 | 0.00 | 0.00 | 84 | 1013.8 |
| 20260507224547 | 61 | 80 | 11.0 | 18.0 | 0.00 | 0.00 | 0.00 | 83 | 1013.8 |
| 20260507224038 | 61 | 9 | 11.0 | 18.0 | 0.00 | 0.00 | 0.00 | 82 | 1014.7 |
| 20260507223541 | 61 | 124 | 10.0 | 17.0 | 0.00 | 0.00 | 0.00 | 81 | 1013.4 |
| 20260507223038 | 61 | 110 | 10.0 | 17.0 | 0.00 | 0.00 | 0.00 | 82 | 1013.3 |
| 20260507222541 | 62 | 97 | 10.0 | 14.0 | 0.00 | 0.00 | 0.00 | 82 | 1013.4 |
| 20260507222037 | 62 | 71 | 9.0 | 13.0 | 0.00 | 0.00 | 0.00 | 82 | 1014.1 |
| 20260507221539 | 62 | 69 | 5.0 | 15.0 | 0.00 | 0.00 | 0.00 | 82 | 1014.2 |
| 20260507221040 | 62 | 76 | 10.0 | 15.0 | 0.00 | 0.00 | 0.00 | 81 | 1013.7 |
| 20260507220537 | 62 | 94 | 9.0 | 12.0 | 0.00 | 0.00 | 0.00 | 82 | 1013.7 |
| 20260507220039 | 62 | 76 | 5.0 | 14.0 | 0.00 | 0.00 | 0.00 | 82 | 1014.2 |
| 20260507215537 | 62 | 82 | 8.0 | 18.0 | 0.00 | 0.00 | 0.00 | 82 | 1013.9 |
| 20260507215037 | 62 | 76 | 11.0 | 18.0 | 0.00 | 0.00 | 0.00 | 82 | 1013.5 |
| 20260507214536 | 62 | 85 | 12.0 | 18.0 | 0.00 | 0.00 | 0.00 | 81 | 1013.9 |
| 20260507214036 | 62 | 58 | 9.0 | 15.0 | 0.00 | 0.00 | 0.00 | 82 | 1014.4 |
| 20260507213535 | 62 | 66 | 11.0 | 15.0 | 0.00 | 0.00 | 0.00 | 82 | 1014.2 |
| 20260507213035 | 62 | 79 | 10.0 | 14.0 | 0.00 | 0.00 | 0.00 | 83 | 1014.4 |
| 20260507212536 | 62 | 71 | 9.0 | 14.0 | 0.00 | 0.00 | 0.00 | 84 | 1014.4 |
| 20260507212036 | 62 | 67 | 11.0 | 14.0 | 0.00 | 0.00 | 0.00 | 84 | 1014.5 |
| 20260507211535 | 62 | 67 | 11.0 | 14.0 | 0.00 | 0.00 | 0.00 | 84 | 1014.8 |
| 20260507211034 | 62 | 42 | 8.0 | 13.0 | 0.00 | 0.00 | 0.00 | 84 | 1015.1 |
| 20260507210534 | 62 | 24 | 7.0 | 15.0 | 0.00 | 0.00 | 0.00 | 84 | 1014.9 |
| 20260507210039 | 62 | 42 | 11.0 | 16.0 | 0.00 | 0.00 | 0.00 | 84 | 1014.6 |
| 20260507205534 | 62 | 70 | 11.0 | 17.0 | 0.00 | 0.00 | 0.00 | 84 | 1014.7 |
| 20260507205035 | 62 | 55 | 13.0 | 17.0 | 0.00 | 0.00 | 0.00 | 84 | 1014.6 |
| 20260507204536 | 62 | 58 | 11.0 | 16.0 | 0.00 | 0.00 | 0.00 | 84 | 1014.5 |
| 20260507204032 | 62 | 59 | 10.0 | 16.0 | 0.00 | 0.00 | 0.00 | 85 | 1014.5 |
| 20260507203531 | 62 | 73 | 8.0 | 14.0 | 0.00 | 0.00 | 0.00 | 86 | 1014.7 |
| 20260507203030 | 61 | 65 | 9.0 | 14.0 | 0.00 | 0.00 | 0.00 | 86 | 1015.1 |
| 20260507202530 | 61 | 42 | 9.0 | 13.0 | 0.00 | 0.00 | 0.00 | 86 | 1015.2 |
| 20260507202030 | 61 | 71 | 5.0 | 14.0 | 0.00 | 0.00 | 0.00 | 86 | 1015.3 |
| 20260507201530 | 61 | 22 | 10.0 | 15.0 | 0.00 | 0.00 | 0.00 | 85 | 1015.3 |
| 20260507201030 | 62 | 10 | 7.0 | 13.0 | 0.00 | 0.00 | 0.00 | 86 | 1015.2 |
| 20260507200530 | 62 | 49 | 8.0 | 13.0 | 0.00 | 0.00 | 0.00 | 86 | 1014.9 |
| 20260507200035 | 62 | 41 | 9.0 | 13.0 | 0.00 | 0.00 | 0.00 | 86 | 1014.9 |
| 20260507195527 | 61 | 65 | 7.0 | 14.0 | 0.00 | 0.00 | 0.00 | 87 | 1014.9 |
| 20260507195027 | 61 | 31 | 9.0 | 14.0 | 0.00 | 0.00 | 0.00 | 86 | 1015.0 |
| 20260507194527 | 61 | 58 | 6.0 | 12.0 | 0.00 | 0.00 | 0.00 | 87 | 1015.0 |
| 20260507194027 | 61 | 32 | 6.0 | 15.0 | 0.00 | 0.00 | 0.00 | 87 | 1014.8 |
| 20260507193527 | 61 | 55 | 9.0 | 17.0 | 0.00 | 0.00 | 0.00 | 86 | 1014.7 |
| 20260507193028 | 61 | 62 | 13.0 | 18.0 | 0.00 | 0.00 | 0.00 | 86 | 1014.3 |
| 20260507192525 | 61 | 84 | 12.0 | 18.0 | 0.00 | 0.00 | 0.00 | 86 | 1014.5 |